Flag for Germany Weather past 2 weeks in Landsberg am Lech, Bavaria, Germany

Now
66 °F

Passing clouds.


Feels Like: 66 °F
Forecast: 64 / 87 °F
Wind: 3 mph from North

Location: Landsberg

Current Time: Aug 30, 2015 at 8:10:55 AM

Latest Report: Aug 30, 2015 at 7:20 AM


Visibility: N/A

Pressure: 30.15 "Hg (28.13 "Hg at 593m altitude)

Humidity: 83%

Dew point: 61 °F

Location of Landsberg am LechLocation

Historic Weather in Landsberg am Lech — Graph

°F

Landsberg am Lech temperature yesterday

Maximum temperature yesterday: 86 °F (at 4:20 PM)
Minimum temperature yesterday: 59 °F (at 5:20 AM)
Average temperature yesterday: 72 °F

Past Weeks' High & Low Weather Summary

 TemperatureHumidityPressure
High86 °F (Aug 29, 4:20 PM)100% (Aug 16, 1:20 AM)30.30 "Hg (Aug 16, 1:20 AM)
Low48 °F (Aug 21, 4:20 AM)32% (Aug 27, 2:20 PM)29.77 "Hg (Aug 24, 8:20 AM)
Average63 °F75%30.05 "Hg
* Reported Aug 15 6:20 AM — Aug 30 6:20 AM, Landsberg am Lech, Weather by CustomWeather, © 2015

Note: Actual official high and low records may vary slightly from our data, if they occured in-between our weather recording intervals... More about our weather records

Advertising

Landsberg am Lech weather history for previous 24 hours

 ConditionsComfort  
Time TempWeatherWind HumidityBarometerVisibility
6:20 AM
Sun, Aug 30
64 °FMild.3 mph83%30.15 "Hg2 mi
5:20 AM64 °FMild.6 mph83%30.15 "Hg2 mi
4:20 AM66 °FMild.3 mph83%30.15 "Hg2 mi
3:20 AM64 °FMild.2 mph88%30.15 "Hg2 mi
2:20 AM64 °FMild.1 mph88%30.15 "Hg2 mi
1:20 AM66 °FMild.2 mph83%30.15 "Hg2 mi
12:20 AM66 °FMild.1 mph83%30.15 "Hg2 mi
11:20 PM
Sat, Aug 29
70 °FMild.2 mph73%30.15 "Hg2 mi
10:20 PM72 °FMild.2 mph65%30.15 "Hg2 mi
9:20 PM75 °FMild.3 mph57%30.18 "Hg2 mi
8:20 PM77 °FPassing clouds.5 mph57%30.15 "HgN/A
7:20 PM81 °FPassing clouds.8 mph51%30.15 "HgN/A
6:20 PM84 °FPassing clouds.10 mph43%30.15 "HgN/A
5:20 PM84 °FPassing clouds.9 mph45%30.18 "HgN/A
4:20 PM86 °FPassing clouds.7 mph38%30.21 "HgN/A
3:20 PM84 °FPassing clouds.7 mph45%30.21 "HgN/A
2:20 PM84 °FPassing clouds.7 mph48%30.24 "HgN/A
1:20 PM82 °FPassing clouds.5 mph48%30.24 "HgN/A
11:20 AM75 °FPassing clouds.9 mph69%30.27 "HgN/A
10:20 AM73 °FPassing clouds.9 mph69%30.27 "HgN/A
9:20 AM72 °FPassing clouds.7 mph73%30.27 "HgN/A
Weather by CustomWeather, © 2015

See weather overviewHow to use our weather pages